User: anonymous   Login
Location: Ar Ranvel
(48.3000°N, 4.8833°W)
Time: 21:33:48
(UTC+00:00)
Language:

Cosmos 1626 - Orbit

View from above orbital plane
View from above orbital plane
View from above satellite
View from above satellite

Ground track
Ground track

The orbit data is extracted from the following two-line orbital elements,

1 15494U 85009A   21269.32884682  .00001209  00000-0  46995-4 0  9995
2 15494  82.4769 123.6367 0002241  19.1869 340.9452 15.25088495  6349
Epoch (UTC): 26 September 2021 07:53:32
Eccentricity: 0.0002241
inclination: 82.4769°
perigee height: 489 km
apogee height: 492 km
right ascension of ascending node: 123.6367°
argument of perigee: 19.1869°
revolutions per day: 15.25088495
mean anomaly at epoch: 340.9452°
orbit number at epoch: 634

The dashed part of the orbit path shows where the satellite is in the earth's shadow,  

DLR